Location: Newark
(47.5833°N, 8.1500°E)
Time: 16:54:58
(UTC+00:00)

Tiros 1 despin weight - Pass Details

Date: 03 November 2020
Orbit: 593 x 642 km, 48.2° (Epoch: 27 November)

Event Time Altitude Azimuth Distance (km) Brightness Sun altitude
Rises 00:05:13 0° 267° (W) 2,872 - -55.7°
Reaches altitude 10° 00:07:32 10° 268° (W) 1,960 - -55.5°
Maximum altitude 00:12:02 82° 355° (N) 613 - -55.2°
Drops below altitude 10° 00:16:29 10° 85° (E) 1,936 - -54.8°
Sets 00:18:46 0° 87° (E) 2,833 - -54.7°
